Regional Weather Roundup
Issued by NWS Grand Forks, ND

Home | Current Version | Previous Version | Graphics & Text | Print | Product List | Glossary On
Versions: 1 2 3 4 5 6 7 8 9 10 11 12 13 14 15 16 17 18 19 20 21 22 23 24 25 26 27 28 29 30 31 32 33 34 35 36 37 38 39 40 41 42 43 44 45 46 47 48 49 50
000
ASUS43 KFGF 210031
RWRFGF
PRAIRIE TO PINES  WEATHER ROUNDUP
NATIONAL WEATHER SERVICE EASTERN NORTH DAKOTA/GRAND FORKS ND
700 PM CDT MON APR 20 2015

 **SATELLITE DATA USED TO AUGMENT SKY COVER AT AUTOMATED STATIONS**
 *****  WEATHER ACROSS EASTERN NORTH DAKOTA  *****

CITY           SKY/WX    TMP DP  RH WIND       PRES   REMARKS
GRAND FORKS    CLOUDY    37  30  75 NW22G30   29.62R
6HR MIN TEMP:  34; 6HR MAX TEMP:  38; 6HR PCP: TRACE;

GRAND FRKS AFB CLOUDY    37  29  74 N16G22    29.63R
GRAND FRKS NWS   N/A     34 N/A N/A N12         N/A
DEVILS LAKE    PTSUNNY   43  27  52 N20G30    29.67S
6HR MIN TEMP:  37; 6HR MAX TEMP:  43;

FARGO          CLOUDY    38  33  82 NW25G37   29.63R
WAHPETON ARPT  CLOUDY    37  32  81 NW20      29.63S
$$

 ***** WEATHER ACROSS CENTRAL AND WESTERN NORTH DAKOTA  *****

CITY           SKY/WX    TMP DP  RH WIND       PRES   REMARKS
BISMARCK       SUNNY     51   3  14 NW24G40   29.76R
6HR MIN TEMP:  49; 6HR MAX TEMP:  54;

MINOT          SUNNY     49   5  16 NW22G32   29.75R
6HR MIN TEMP:  46; 6HR MAX TEMP:  52;

JAMESTOWN      CLOUDY    43  24  47 N22G33    29.67R
6HR MIN TEMP:  39; 6HR MAX TEMP:  44;

MINOT AFB      SUNNY     50   8  18 NW25G33   29.74R
GARRISON         N/A     50  10  20 N31G40    29.75S
WILLISTON      SUNNY     53  14  21 NW21G30   29.83S
6HR MIN TEMP:  51; 6HR MAX TEMP:  56;

DICKINSON      MOSUNNY   49  13  23 NW23G30   29.80S
6HR MIN TEMP:  48; 6HR MAX TEMP:  53;

HETTINGER      CLOUDY    48  14  25 NW22G30   29.83R
6HR MIN TEMP:  48; 6HR MAX TEMP:  52;

$$

 *****  OTHER AIRPORT OBSERVATIONS IN OUR AREA  *****

CITY           SKY/WX    TMP DP  RH WIND       PRES   REMARKS
WALHALLA       CLOUDY    37  32  81 N14G24    29.66R
GRAFTON AIRPOR CLOUDY    36  34  93 NW22G30   29.64R
VALLEY CITY AR CLOUDY    39  28  65 N22G31    29.66S
CANDO          CLOUDY    41  27  56 N22G30    29.69S
CAVALIER APRT  CLOUDY    36  30  80 N24G33    29.64R
GWINNER        CLOUDY    43  30  61 NW22      29.68R
SHEYENNE NWR     N/A     40  30  67 NW17      29.95
ROLLA          MOCLDY    39  27  60 N21G29    29.70S
 ***** THE ABOVE OBSERVATIONS ARE NON NWS ARE NOT QUALITY
       CONTROLLED AND MAY MIS-REPORT RAIN FOR SNOW...
$$

  *****  WEATHER ACROSS NORTHERN MINNESOTA  *****

CITY           SKY/WX    TMP DP  RH WIND       PRES   REMARKS
FLAG ISLAND    CLOUDY    34  30  86 NW24      29.44R WCI  21
WARROAD        LGT SNOW  34  28  80 NW22G29   29.49R WCI  22
ROSEAU         FLURRIES  34  28  80 NW22      29.51S WCI  22
HALLOCK        DRIZZLE   36  30  80 NW23G30   29.60R
THF RVR FALLS  CLOUDY    34  28  80 NW29      29.56S WCI  20
6HR MIN TEMP:  32; 6HR MAX TEMP:  36;

BAUDETTE       LGT SNOW  33  29  85 NW23G29   29.42S FOG     WCI  21
6HR MIN TEMP:  31; 6HR MAX TEMP:  37; 6HR PCP: TRACE;

WASKISH        FLURRIES  34  30  86 W15G22    29.45S WCI  24
CROOKSTON      CLOUDY    34  34 100 N25G35    29.61R WCI  21
$$
  *****  WEATHER ACROSS CENTRAL AND WEST MINNESOTA  *****

CITY           SKY/WX    TMP DP  RH WIND       PRES   REMARKS
FOSSTON        CLOUDY    30  28  93 NW20G30   29.55R WCI  18
BEMIDJI        LGT SNOW  32  30  93 NW17      29.48S WCI  21
PARK RAPIDS    LGT SNOW  37  28  70 NW20      29.50R
6HR MIN TEMP:  35; 6HR MAX TEMP:  44; 6HR PCP: TRACE;

ELBOW LAKE     CLOUDY    35  33  93 NW18G28   29.61R WCI  24
6HR MIN TEMP:  34; 6HR MAX TEMP:  38; 6HR PCP:  0.02;

WADENA         LGT RAIN  34  28  80 NW14G29   29.54R WCI  24
DETROIT LAKES  MIX PCPN  34  32  93 NW21G35   29.58R WCI  22
MOORHEAD       DRIZZLE   36  32  87 N24       29.63R
FERGUS FALLS   PTSUNNY   34  34 100 NW22      29.63R WCI  22
MORRIS MN      CLOUDY    37  34  87 NW28G33   29.61R
STAPLES        CLOUDY    34  28  80 NW18G32   29.52R WCI  23
$$
  *****  WEATHER ELSEWHERE ACROSS MINNESOTA  *****

CITY           SKY/WX    TMP DP  RH WIND       PRES   REMARKS
DULUTH         FLURRIES  34  26  72 W15G22    29.37S WCI  24
6HR MIN TEMP:  34; 6HR MAX TEMP:  37; 6HR PCP: TRACE;

INTRNTL FALLS  FLURRIES  34  31  88 W15       29.36R WCI  24
6HR MIN TEMP:  31; 6HR MAX TEMP:  35; 6HR PCP:  0.03;

ELY            LGT SNOW  30  28  93 W9        29.31S WCI  22
CLOQUET        LGT SNOW  34  27  75 W13G21    29.41S WCI  25
WHEATON        DRIZZLE   37  30  75 NW20G28   29.66R
BRAINERD       CLOUDY    37  27  67 NW15G28   29.49R
6HR MIN TEMP:  36; 6HR MAX TEMP:  38; 6HR PCP: TRACE;

HIBBING        LGT SNOW  33  27  78 W10G18    29.38S WCI  25
6HR MIN TEMP:  32; 6HR MAX TEMP:  34; 6HR PCP: TRACE;

ALEXANDRIA     CLOUDY    37  29  72 NW22G36   29.57R
6HR MIN TEMP:  35; 6HR MAX TEMP:  41; 6HR PCP:  0.01;

SAINT CLOUD    CLOUDY    39  28  64 W26G35    29.52R
6HR MIN TEMP:  38; 6HR MAX TEMP:  42; 6HR PCP: TRACE;

MINNEAPOLIS    CLOUDY    42  28  57 W25G35    29.52S
6HR MIN TEMP:  40; 6HR MAX TEMP:  43;

$$

  *****  WEATHER ACROSS SOUTH DAKOTA  *****

CITY           SKY/WX    TMP DP  RH WIND       PRES   REMARKS
SIOUX FALLS    MOSUNNY   51  18  27 NW25G37   29.67R
6HR MIN TEMP:  50; 6HR MAX TEMP:  54;

BROOKINGS      SUNNY     46  25  42 NW29G37   29.66R
WATERTOWN      PTSUNNY   45  26  47 N25G35    29.66R
6HR MIN TEMP:  39; 6HR MAX TEMP:  48;

HURON          SUNNY     52   4  14 N29       29.70R
6HR MIN TEMP:  49; 6HR MAX TEMP:  55;

SISSETON         N/A     41  29  62 N23       29.64R
ABERDEEN       SUNNY     51  10  19 NW28G39   29.70S
6HR MIN TEMP:  46; 6HR MAX TEMP:  53;

MITCHELL       SUNNY     54   1  11 NW30G43   29.72S
PIERRE         SUNNY     53   6  15 NW25G36   29.76S
6HR MIN TEMP:  52; 6HR MAX TEMP:  56;

MOBRIDGE       SUNNY     53   2  12 N24G35    29.73S
RAPID CITY     SUNNY     52  21  29 N17G29    29.83S
6HR MIN TEMP:  48; 6HR MAX TEMP:  55;

$$

  *****  SOME WEATHER IN NEARBY STATES *****

CITY           SKY/WX    TMP DP  RH WIND       PRES   REMARKS
GLASGOW MT     CLOUDY    58  16  19 N13       29.83F
6HR MIN TEMP:  51; 6HR MAX TEMP:  59;

GREAT FALLS MT MOSUNNY   65  23  20 W7        29.84F
6HR MIN TEMP:  56; 6HR MAX TEMP:  66;

CHEYENNE WY    SUNNY     48  20  32 N17G30    29.91R
6HR MIN TEMP:  43; 6HR MAX TEMP:  48;

SCOTTSBLUFF NE SUNNY     57  24  28 NW18      29.85F
6HR MIN TEMP:  50; 6HR MAX TEMP:  57;

OMAHA NE       MOSUNNY   57  19  22 NW23G31   29.75R
6HR MIN TEMP:  53; 6HR MAX TEMP:  59;

DES MOINES IA  MOSUNNY   55  11  17 NW22G33   29.68S
6HR MIN TEMP:  49; 6HR MAX TEMP:  57;

DAVENPORT IA   CLOUDY    43  36  76 NW15      29.66R
6HR MIN TEMP:  42; 6HR MAX TEMP:  49; 6HR PCP:  0.02;

CHICAGO IL     CLOUDY    46  31  55 W20G33    29.57R
6HR MIN TEMP:  44; 6HR MAX TEMP:  47; 6HR PCP: TRACE;

EAU CLAIRE WI  CLOUDY    40  25  55 W18G24    29.48R
6HR MIN TEMP:  39; 6HR MAX TEMP:  43;

LA CROSSE WI   CLOUDY    44  29  55 W20       29.53R
6HR MIN TEMP:  42; 6HR MAX TEMP:  47;

$$

  *****  SOME NATIONAL WEATHER *****

CITY           SKY/WX    TMP DP  RH WIND       PRES   REMARKS
LA GUARDIA NY  FOG       50  49  96 NE7       29.65S VSB 1/4
6HR MIN TEMP:  50; 6HR MAX TEMP:  58; 6HR PCP:  0.01;

RALEIGH NC     CLOUDY    66  63  88 S9        29.66F
6HR MIN TEMP:  64; 6HR MAX TEMP:  77; 6HR PCP:  0.20;

ATLANTA GA     PTCLDY    71  50  47 NW20G26   29.75R
6HR MIN TEMP:  71; 6HR MAX TEMP:  77;

NEW ORLEANS LA CLOUDY    72  53  51 NW10      29.90R
6HR MIN TEMP:  72; 6HR MAX TEMP:  80;

OKLAHOMA CITY  MOSUNNY   64  29  26 CALM      29.95F
6HR MIN TEMP:  62; 6HR MAX TEMP:  66;

ALBUQUERQUE NM PTSUNNY   69  20  15 NW10G17   29.89S
6HR MIN TEMP:  60; 6HR MAX TEMP:  72; 6HR PCP: TRACE;

SALT LAKE CITY MOSUNNY   68  23  18 N10       29.87F
6HR MIN TEMP:  62; 6HR MAX TEMP:  69;

LOS ANGELES CA MOSUNNY   60  50  69 W14       29.85F
6HR MIN TEMP:  60; 6HR MAX TEMP:  64;




USA.gov is the U.S. government's official web portal to all federal, state and local government web resources and services.